{"data":{"norad_id":59938,"epoch":"2026-05-24T17:35:39.562656Z","epoch_age_seconds":88271,"freshness":"FRESH","line1":"1 59938U 24106S   26144.73309679  .00000366  00000+0  22811-4 0  9990","line2":"2 59938  43.0017 262.9868 0000948 256.8115 103.2631 15.27562813112168","mean_motion":15.27562813,"eccentricity":9.48e-5,"inclination_deg":43.0017,"raan_deg":262.9868,"arg_perigee_deg":256.8115,"mean_anomaly_deg":103.2631,"bstar":2.2811e-5,"rev_number":11216,"period_min":94.267809332957,"perigee_km":482.45011526243,"apogee_km":483.75100590392,"semimajor_km":6861.2375605832,"source":"CELESTRAK","updated_at":"2026-05-25T13:38:19.124962Z"}}